Location: Astronomy Club of Akron Observatory
(40.9700°N, 81.5606°W)
Time: 09:57:50
(UTC-04:00)

ISS - Pass Details

Date: 20 July 2018
Orbit: 402 x 408 km, 51.6° (Epoch: 23 July)

Event Time Altitude Azimuth Distance (km) Brightness Sun altitude
Rises 04:01:56 0° 310° (NW) 2,332 0.1 -19.3°
Reaches altitude 10° 04:04:08 10° 319° (NW) 1,470 -0.9 -19.1°
Maximum altitude 04:07:12 35° 28° (NNE) 677 -2.1 -18.7°
Drops below altitude 10° 04:10:15 10° 96° (E) 1,466 -0.6 -18.4°
Sets 04:12:27 0° 106° (ESE) 2,325 0.3 -18.1°
